Time,TemperatureF,DewpointF,PressureIn,WindDirection,WindDirectionDegrees,WindSpeedMPH,WindSpeedGustMPH,Humidity,HourlyPrecipIn,Conditions,Clouds,dailyrainin,SoftwareType,DateUTC
2013-07-16 07:40:00,69.3,66.2,29.09,SSW,202,0.0,0.0,90,0.00,,CLR,0.00,VWS V14.01,2013-07-16 11:40:00,
2013-07-16 07:41:00,69.3,66.2,29.09,SSW,202,0.0,0.0,90,0.00,,CLR,0.00,VWS V14.01,2013-07-16 11:41:00,
2013-07-16 07:44:00,69.4,66.4,29.09,SSW,202,0.0,0.0,90,0.00,,CLR,0.00,VWS V14.01,2013-07-16 11:44:00,
2013-07-16 07:49:00,69.4,66.4,29.09,SSW,202,0.0,0.0,90,0.00,,CLR,0.00,VWS V14.01,2013-07-16 11:49:00,
2013-07-16 07:54:00,69.6,66.2,29.09,SSW,202,0.0,0.0,89,0.00,,CLR,0.00,VWS V14.01,2013-07-16 11:54:00,
2013-07-16 07:59:00,70.0,65.3,29.09,SSW,202,0.0,0.0,85,0.00,,CLR,0.00,VWS V14.01,2013-07-16 11:59:00,
2013-07-16 08:04:00,70.3,64.6,29.09,SSW,202,0.0,0.0,82,0.00,,CLR,0.00,VWS V14.01,2013-07-16 12:04:00,
2013-07-16 08:09:00,70.7,63.1,29.09,SSW,202,0.0,0.0,77,0.00,,CLR,0.00,VWS V14.01,2013-07-16 12:09:00,
2013-07-16 08:14:00,70.9,63.0,29.09,SSW,202,0.0,0.0,76,0.00,,CLR,0.00,VWS V14.01,2013-07-16 12:14:00,
2013-07-16 08:19:00,71.8,60.7,29.09,SSW,202,0.0,0.0,68,0.00,,CLR,0.00,VWS V14.01,2013-07-16 12:19:00,
2013-07-16 08:24:00,72.9,59.1,29.09,SSW,202,0.0,0.0,62,0.00,,CLR,0.00,VWS V14.01,2013-07-16 12:24:00,
2013-07-16 08:29:00,73.4,55.2,29.09,SSW,202,0.0,0.0,53,0.00,,CLR,0.00,VWS V14.01,2013-07-16 12:29:00,
2013-07-16 08:34:00,74.1,58.4,29.09,SSW,202,0.0,0.0,58,0.00,,CLR,0.00,VWS V14.01,2013-07-16 12:34:00,
2013-07-16 08:39:00,74.7,55.3,29.09,SSW,202,0.0,0.0,51,0.00,,CLR,0.00,VWS V14.01,2013-07-16 12:39:00,
2013-07-16 08:45:00,75.6,53.3,29.09,SSW,202,0.0,0.0,46,0.00,,CLR,0.00,VWS V14.01,2013-07-16 12:45:00,
2013-07-16 08:50:00,76.1,53.8,29.09,SSW,202,2.2,2.2,46,0.00,,CLR,0.00,VWS V14.01,2013-07-16 12:50:00,
2013-07-16 08:55:00,77.0,55.2,29.09,SSW,202,0.0,0.0,47,0.00,,CLR,0.00,VWS V14.01,2013-07-16 12:55:00,
2013-07-16 09:00:00,77.7,54.1,29.09,SE,132,0.0,0.0,44,0.00,,CLR,0.00,VWS V14.01,2013-07-16 13:00:00,
2013-07-16 09:05:00,78.4,53.5,29.09,SE,132,0.0,0.0,42,0.00,,CLR,0.00,VWS V14.01,2013-07-16 13:05:00,
2013-07-16 09:10:00,79.0,54.0,29.09,SE,132,0.0,0.0,42,0.00,,CLR,0.00,VWS V14.01,2013-07-16 13:10:00,
2013-07-16 09:15:00,79.7,54.6,29.09,SE,132,2.2,2.2,42,0.00,,CLR,0.00,VWS V14.01,2013-07-16 13:15:00,
2013-07-16 09:20:00,80.2,52.3,29.09,SE,132,0.0,0.0,38,0.00,,CLR,0.00,VWS V14.01,2013-07-16 13:20:00,
2013-07-16 09:25:00,80.1,52.9,29.09,SE,132,0.0,0.0,39,0.00,,CLR,0.00,VWS V14.01,2013-07-16 13:25:00,
2013-07-16 09:31:00,79.5,52.4,29.09,SE,132,0.0,0.0,39,0.00,,CLR,0.00,VWS V14.01,2013-07-16 13:31:00,
2013-07-16 09:36:00,80.1,52.9,29.09,SE,132,0.0,0.0,39,0.00,,CLR,0.00,VWS V14.01,2013-07-16 13:36:00,
2013-07-16 09:41:00,81.0,54.4,29.09,SE,132,0.0,0.0,40,0.00,,CLR,0.00,VWS V14.01,2013-07-16 13:41:00,
2013-07-16 09:46:00,82.0,52.5,29.09,SE,132,0.0,0.0,36,0.00,,CLR,0.00,VWS V14.01,2013-07-16 13:46:00,
2013-07-16 09:51:00,81.5,51.2,29.09,SE,132,0.0,0.0,35,0.00,,CLR,0.00,VWS V14.01,2013-07-16 13:51:00,
2013-07-16 09:56:00,82.0,54.0,29.09,SE,132,0.0,0.0,38,0.00,,CLR,0.00,VWS V14.01,2013-07-16 13:56:00,
2013-07-16 10:01:00,82.9,52.5,29.09,SE,132,0.0,0.0,35,0.00,,CLR,0.00,VWS V14.01,2013-07-16 14:01:00,
2013-07-16 10:06:00,84.0,53.5,29.09,SE,132,0.0,0.0,35,0.00,,CLR,0.00,VWS V14.01,2013-07-16 14:06:00,
2013-07-16 10:11:00,84.2,52.0,29.09,SE,132,3.1,3.1,33,0.00,,CLR,0.00,VWS V14.01,2013-07-16 14:11:00,
2013-07-16 10:17:00,83.7,52.3,29.09,SE,132,0.0,0.0,34,0.00,,CLR,0.00,VWS V14.01,2013-07-16 14:17:00,
2013-07-16 10:22:00,84.7,50.8,29.09,SE,132,0.0,2.2,31,0.00,,CLR,0.00,VWS V14.01,2013-07-16 14:22:00,
2013-07-16 10:27:00,85.6,50.7,29.09,SE,132,0.0,0.0,30,0.00,,CLR,0.00,VWS V14.01,2013-07-16 14:27:00,
2013-07-16 10:32:00,85.5,49.6,29.09,SE,132,0.0,0.0,29,0.00,,CLR,0.00,VWS V14.01,2013-07-16 14:32:00,
2013-07-16 10:37:00,86.4,51.3,29.09,SE,132,0.0,0.0,30,0.00,,CLR,0.00,VWS V14.01,2013-07-16 14:37:00,
2013-07-16 10:42:00,86.5,51.5,29.09,SE,132,2.2,2.2,30,0.00,,CLR,0.00,VWS V14.01,2013-07-16 14:42:00,
2013-07-16 10:47:00,86.5,50.5,29.09,SE,132,2.2,2.7,29,0.00,,CLR,0.00,VWS V14.01,2013-07-16 14:47:00,
2013-07-16 10:52:00,86.7,50.7,29.09,SE,132,2.2,2.7,29,0.00,,CLR,0.00,VWS V14.01,2013-07-16 14:52:00,
2013-07-16 10:57:00,86.9,49.9,29.09,SE,131,2.7,2.7,28,0.00,,CLR,0.00,VWS V14.01,2013-07-16 14:57:00,
2013-07-16 11:03:00,87.3,51.2,29.09,SE,131,0.0,0.0,29,0.00,,CLR,0.00,VWS V14.01,2013-07-16 15:03:00,
2013-07-16 11:08:00,87.8,49.7,29.09,SE,131,3.1,3.1,27,0.00,,CLR,0.00,VWS V14.01,2013-07-16 15:08:00,
2013-07-16 11:13:00,88.3,52.1,29.09,SE,131,0.0,0.0,29,0.00,,CLR,0.00,VWS V14.01,2013-07-16 15:13:00,
2013-07-16 11:18:00,88.2,50.0,29.09,SSE,163,0.0,3.6,27,0.00,,CLR,0.00,VWS V14.01,2013-07-16 15:18:00,
2013-07-16 11:23:00,88.5,51.3,29.09,ENE,69,0.0,2.2,28,0.00,,CLR,0.00,VWS V14.01,2013-07-16 15:23:00,
2013-07-16 11:28:00,88.7,48.4,29.09,NNE,13,2.7,2.7,25,0.00,,CLR,0.00,VWS V14.01,2013-07-16 15:28:00,
2013-07-16 11:33:00,88.5,47.2,29.09,SW,228,0.0,0.0,24,0.00,,CLR,0.00,VWS V14.01,2013-07-16 15:33:00,
2013-07-16 11:38:00,89.1,51.8,29.09,SW,228,0.0,0.0,28,0.00,,CLR,0.00,VWS V14.01,2013-07-16 15:38:00,
2013-07-16 11:43:00,89.6,52.2,29.09,SSE,157,2.7,2.7,28,0.00,,CLR,0.00,VWS V14.01,2013-07-16 15:43:00,
2013-07-16 11:48:00,89.2,50.9,29.09,East,83,2.2,2.2,27,0.00,,CLR,0.00,VWS V14.01,2013-07-16 15:48:00,
2013-07-16 11:53:00,89.6,48.1,29.09,East,83,0.0,0.0,24,0.00,,CLR,0.00,VWS V14.01,2013-07-16 15:53:00,
2013-07-16 11:58:00,89.2,46.6,29.09,NW,307,0.0,2.7,23,0.00,,CLR,0.00,VWS V14.01,2013-07-16 15:58:00,
2013-07-16 12:03:00,89.6,44.5,29.06,SSE,157,0.0,0.0,21,0.00,,FEW041,0.00,VWS V14.01,2013-07-16 16:03:00,
2013-07-16 12:08:00,89.6,51.2,29.06,SSE,151,2.2,2.7,27,0.00,,FEW041,0.00,VWS V14.01,2013-07-16 16:08:00,
2013-07-16 12:13:00,89.6,48.1,29.06,NW,305,0.0,3.1,24,0.00,,FEW041,0.00,VWS V14.01,2013-07-16 16:13:00,
2013-07-16 12:19:00,90.1,45.0,29.06,WSW,252,0.0,2.7,21,0.00,,FEW041,0.00,VWS V14.01,2013-07-16 16:19:00,
2013-07-16 12:24:00,90.1,46.2,29.06,NE,50,0.0,0.0,22,0.00,,FEW041,0.00,VWS V14.01,2013-07-16 16:24:00,
2013-07-16 12:29:00,90.1,45.0,29.06,NE,50,0.0,0.0,21,0.00,,FEW041,0.00,VWS V14.01,2013-07-16 16:29:00,
2013-07-16 12:34:00,90.1,48.5,29.06,WSW,249,0.0,0.0,24,0.00,,FEW041,0.00,VWS V14.01,2013-07-16 16:34:00,
2013-07-16 12:39:00,89.8,44.7,29.06,West,262,3.1,3.1,21,0.00,,FEW041,0.00,VWS V14.01,2013-07-16 16:39:00,
2013-07-16 12:44:00,90.1,46.2,29.06,WSW,237,4.0,4.0,22,0.00,,FEW041,0.00,VWS V14.01,2013-07-16 16:44:00,
2013-07-16 12:49:00,90.7,49.0,29.06,NNE,22,2.7,2.7,24,0.00,,FEW041,0.00,VWS V14.01,2013-07-16 16:49:00,
2013-07-16 12:54:00,90.3,45.1,29.06,NE,34,2.2,2.7,21,0.00,,FEW041,0.00,VWS V14.01,2013-07-16 16:54:00,
2013-07-16 12:59:00,90.3,45.1,29.06,NE,47,3.6,3.6,21,0.00,,FEW041,0.00,VWS V14.01,2013-07-16 16:59:00,
2013-07-16 13:04:00,90.3,43.8,29.06,NE,38,0.0,0.0,20,0.00,,FEW045,0.00,VWS V14.01,2013-07-16 17:04:00,
2013-07-16 13:09:00,90.9,46.8,29.06,NE,48,0.0,0.0,22,0.00,,FEW045,0.00,VWS V14.01,2013-07-16 17:09:00,
2013-07-16 13:15:00,91.2,44.6,29.06,WNW,285,0.0,0.0,20,0.00,,FEW045,0.00,VWS V14.01,2013-07-16 17:15:00,
2013-07-16 13:20:00,91.0,44.4,29.06,WNW,290,0.0,0.0,20,0.00,,FEW045,0.00,VWS V14.01,2013-07-16 17:20:00,
2013-07-16 13:25:00,91.4,43.4,29.06,NE,37,0.0,0.0,19,0.00,,FEW045,0.00,VWS V14.01,2013-07-16 17:25:00,
2013-07-16 13:30:00,91.4,42.0,29.06,WNW,283,2.2,2.2,18,0.00,,FEW045,0.00,VWS V14.01,2013-07-16 17:30:00,
2013-07-16 13:35:00,91.9,46.5,29.06,East,92,3.1,3.1,21,0.00,,FEW045,0.00,VWS V14.01,2013-07-16 17:35:00,
2013-07-16 13:40:00,91.0,41.7,29.06,NNW,328,0.0,0.0,18,0.00,,FEW045,0.00,VWS V14.01,2013-07-16 17:40:00,
2013-07-16 13:45:00,91.2,41.8,29.06,WNW,284,2.2,2.2,18,0.00,,FEW045,0.00,VWS V14.01,2013-07-16 17:45:00,
2013-07-16 13:50:00,91.2,41.8,29.06,SSE,149,2.2,2.2,18,0.00,,FEW045,0.00,VWS V14.01,2013-07-16 17:50:00,
2013-07-16 13:55:00,91.0,41.7,29.06,NE,48,0.0,2.2,18,0.00,,FEW045,0.00,VWS V14.01,2013-07-16 17:55:00,
2013-07-16 14:00:00,91.2,41.8,29.06,NNE,25,2.2,2.2,18,0.00,,FEW045,0.00,VWS V14.01,2013-07-16 18:00:00,
2013-07-16 14:06:00,91.2,43.2,29.06,NE,41,0.0,2.2,19,0.00,,SCT045,0.00,VWS V14.01,2013-07-16 18:06:00,
2013-07-16 14:11:00,91.0,41.7,29.06,West,266,2.2,4.0,18,0.00,,SCT045,0.00,VWS V14.01,2013-07-16 18:11:00,
2013-07-16 14:16:00,90.7,44.1,29.06,West,264,2.7,2.7,20,0.00,,SCT045,0.00,VWS V14.01,2013-07-16 18:16:00,
2013-07-16 14:21:00,90.7,44.1,29.06,South,171,0.0,0.0,20,0.00,,SCT045,0.00,VWS V14.01,2013-07-16 18:21:00,
2013-07-16 14:26:00,90.7,41.4,29.06,West,274,0.0,3.6,18,0.00,,SCT045,0.00,VWS V14.01,2013-07-16 18:26:00,
2013-07-16 14:31:00,90.5,42.7,29.06,NNE,33,0.0,0.0,19,0.00,,SCT045,0.00,VWS V14.01,2013-07-16 18:31:00,
2013-07-16 14:36:00,90.9,41.5,29.03,NW,304,2.2,3.1,18,0.00,,SCT045,0.00,VWS V14.01,2013-07-16 18:36:00,
2013-07-16 14:41:00,91.2,43.2,29.03,ESE,117,3.6,4.0,19,0.00,,SCT045,0.00,VWS V14.01,2013-07-16 18:41:00,
2013-07-16 14:46:00,91.2,41.8,29.03,ESE,117,0.0,0.0,18,0.00,,SCT045,0.00,VWS V14.01,2013-07-16 18:46:00,
2013-07-16 14:51:00,91.2,41.8,29.03,NNE,15,3.1,3.6,18,0.00,,SCT045,0.00,VWS V14.01,2013-07-16 18:51:00,
2013-07-16 14:56:00,91.6,42.1,29.03,NNW,327,0.0,0.0,18,0.00,,SCT045,0.00,VWS V14.01,2013-07-16 18:56:00,
2013-07-16 15:01:00,91.4,43.4,29.03,South,183,0.0,0.0,19,0.00,,SCT045,0.00,VWS V14.01,2013-07-16 19:01:00,
2013-07-16 15:06:00,91.2,41.8,29.03,SSW,192,0.0,0.0,18,0.00,,FEW055,0.00,VWS V14.01,2013-07-16 19:06:00,
2013-07-16 15:11:00,91.6,43.5,29.03,WSW,243,0.0,0.0,19,0.00,,FEW055,0.00,VWS V14.01,2013-07-16 19:11:00,
2013-07-16 15:17:00,91.6,42.1,29.03,West,265,0.0,0.0,18,0.00,,FEW055,0.00,VWS V14.01,2013-07-16 19:17:00,
2013-07-16 15:22:00,91.6,42.1,29.03,West,271,0.0,0.0,18,0.00,,FEW055,0.00,VWS V14.01,2013-07-16 19:22:00,
2013-07-16 15:27:00,91.6,42.1,29.03,SE,141,3.1,3.1,18,0.00,,FEW055,0.00,VWS V14.01,2013-07-16 19:27:00,
2013-07-16 15:32:00,91.2,43.2,29.03,SSW,213,0.0,0.0,19,0.00,,FEW055,0.00,VWS V14.01,2013-07-16 19:32:00,
2013-07-16 15:37:00,91.2,41.8,29.03,NW,320,0.0,0.0,18,0.00,,FEW055,0.00,VWS V14.01,2013-07-16 19:37:00,
2013-07-16 15:42:00,91.2,41.8,29.03,ENE,61,0.0,0.0,18,0.00,,FEW055,0.00,VWS V14.01,2013-07-16 19:42:00,
2013-07-16 15:47:00,91.2,43.2,29.03,ENE,60,0.0,0.0,19,0.00,,FEW055,0.00,VWS V14.01,2013-07-16 19:47:00,
2013-07-16 15:52:00,91.4,42.0,29.03,ENE,77,2.2,2.2,18,0.00,,FEW055,0.00,VWS V14.01,2013-07-16 19:52:00,
2013-07-16 15:57:00,90.9,44.3,29.03,East,84,0.0,2.7,20,0.00,,FEW055,0.00,VWS V14.01,2013-07-16 19:57:00,
2013-07-16 16:02:00,90.7,42.8,29.03,East,82,0.0,0.0,19,0.00,,FEW055,0.00,VWS V14.01,2013-07-16 20:02:00,
2013-07-16 16:07:00,91.4,43.4,29.03,NE,41,0.0,2.2,19,0.00,,FEW055,0.00,VWS V14.01,2013-07-16 20:07:00,
2013-07-16 16:12:00,91.9,42.4,29.03,NE,36,0.0,0.0,18,0.00,,FEW055,0.00,VWS V14.01,2013-07-16 20:12:00,
2013-07-16 16:18:00,91.9,42.4,29.00,SSW,202,0.0,0.0,18,0.00,,FEW055,0.00,VWS V14.01,2013-07-16 20:18:00,
2013-07-16 16:23:00,91.9,42.4,29.00,ESE,111,2.7,2.7,18,0.00,,FEW055,0.00,VWS V14.01,2013-07-16 20:23:00,
2013-07-16 16:28:00,91.9,42.4,29.00,ESE,111,0.0,0.0,18,0.00,,FEW055,0.00,VWS V14.01,2013-07-16 20:28:00,
2013-07-16 16:33:00,92.1,42.6,29.00,ESE,111,0.0,0.0,18,0.00,,FEW055,0.00,VWS V14.01,2013-07-16 20:33:00,
2013-07-16 16:38:00,91.8,42.3,29.00,ESE,111,0.0,0.0,18,0.00,,FEW055,0.00,VWS V14.01,2013-07-16 20:38:00,
2013-07-16 16:43:00,90.9,41.5,29.00,ESE,111,0.0,0.0,18,0.00,,FEW055,0.00,VWS V14.01,2013-07-16 20:43:00,
2013-07-16 16:48:00,90.7,41.4,29.00,ESE,111,2.2,2.2,18,0.00,,FEW055,0.00,VWS V14.01,2013-07-16 20:48:00,
2013-07-16 16:53:00,90.7,42.8,29.00,ESE,111,2.2,2.2,19,0.00,,FEW055,0.00,VWS V14.01,2013-07-16 20:53:00,
2013-07-16 16:58:00,90.5,42.7,29.00,ESE,111,0.0,2.7,19,0.00,,FEW055,0.00,VWS V14.01,2013-07-16 20:58:00,
2013-07-16 17:03:00,90.7,42.8,29.00,ESE,111,0.0,0.0,19,0.00,,SCT055,0.00,VWS V14.01,2013-07-16 21:03:00,
2013-07-16 17:08:00,90.3,43.8,29.00,ESE,111,0.0,0.0,20,0.00,,SCT055,0.00,VWS V14.01,2013-07-16 21:08:00,
2013-07-16 17:13:00,90.1,42.4,29.00,ESE,111,0.0,0.0,19,0.00,,SCT055,0.00,VWS V14.01,2013-07-16 21:13:00,
2013-07-16 17:18:00,89.8,43.4,29.00,ESE,111,0.0,0.0,20,0.00,,SCT055,0.00,VWS V14.01,2013-07-16 21:18:00,
2013-07-16 17:23:00,90.0,43.5,29.00,ESE,111,0.0,0.0,20,0.00,,SCT055,0.00,VWS V14.01,2013-07-16 21:23:00,
2013-07-16 17:29:00,90.0,44.8,29.00,ESE,111,0.0,0.0,21,0.00,,SCT055,0.00,VWS V14.01,2013-07-16 21:29:00,
2013-07-16 17:34:00,89.8,43.4,29.00,ESE,111,0.0,0.0,20,0.00,,SCT055,0.00,VWS V14.01,2013-07-16 21:34:00,
2013-07-16 17:39:00,89.6,43.3,29.00,ESE,111,0.0,0.0,20,0.00,,SCT055,0.00,VWS V14.01,2013-07-16 21:39:00,
2013-07-16 17:44:00,89.2,44.2,29.00,ESE,111,0.0,0.0,21,0.00,,SCT055,0.00,VWS V14.01,2013-07-16 21:44:00,
2013-07-16 17:49:00,88.9,43.9,29.00,ESE,111,2.7,2.7,21,0.00,,SCT055,0.00,VWS V14.01,2013-07-16 21:49:00,
2013-07-16 17:54:00,88.5,43.6,29.00,ESE,111,0.0,0.0,21,0.00,,SCT055,0.00,VWS V14.01,2013-07-16 21:54:00,
2013-07-16 17:59:00,88.2,45.7,29.00,ESE,111,0.0,0.0,23,0.00,,SCT055,0.00,VWS V14.01,2013-07-16 21:59:00,
2013-07-16 18:04:00,87.6,47.5,29.00,ESE,111,0.0,0.0,25,0.00,,,0.00,VWS V14.01,2013-07-16 22:04:00,
2013-07-16 18:09:00,87.3,48.2,29.00,NNE,12,2.7,3.1,26,0.00,,,0.00,VWS V14.01,2013-07-16 22:09:00,
2013-07-16 18:14:00,86.7,49.8,29.00,ESE,114,0.0,0.0,28,0.00,,,0.00,VWS V14.01,2013-07-16 22:14:00,
2013-07-16 18:19:00,86.0,49.1,29.00,ESE,114,0.0,0.0,28,0.00,,,0.00,VWS V14.01,2013-07-16 22:19:00,
2013-07-16 18:24:00,84.9,49.2,29.00,NE,54,2.7,2.7,29,0.00,,,0.00,VWS V14.01,2013-07-16 22:24:00,
2013-07-16 18:29:00,84.7,49.0,29.00,NE,49,2.2,2.7,29,0.00,,,0.00,VWS V14.01,2013-07-16 22:29:00,
2013-07-16 18:35:00,82.2,48.6,29.06,NW,312,3.1,3.1,31,0.00,,OVC085,0.00,VWS V14.01,2013-07-16 22:35:00,
2013-07-16 18:40:00,81.0,48.4,29.06,NE,42,2.7,2.7,32,0.00,,OVC085,0.00,VWS V14.01,2013-07-16 22:40:00,
2013-07-16 18:45:00,78.4,48.5,29.06,SW,234,4.9,4.9,35,0.00,,OVC085,0.00,VWS V14.01,2013-07-16 22:45:00,
2013-07-16 18:50:00,76.1,51.4,29.06,WSW,257,2.2,2.2,42,0.00,,OVC085,0.00,VWS V14.01,2013-07-16 22:50:00,
2013-07-16 18:55:00,74.1,55.9,29.06,SW,218,2.2,2.2,53,0.04,,OVC085,0.04,VWS V14.01,2013-07-16 22:55:00,
2013-07-16 19:00:00,73.8,60.4,29.06,SW,227,0.0,0.0,63,0.04,,OVC085,0.04,VWS V14.01,2013-07-16 23:00:00,
2013-07-16 19:05:00,73.4,59.6,29.06,SSW,192,2.7,2.7,62,0.04,,OVC100,0.04,VWS V14.01,2013-07-16 23:05:00,
2013-07-16 19:10:00,73.4,62.2,29.06,SSW,192,0.0,0.0,68,0.04,,OVC100,0.04,VWS V14.01,2013-07-16 23:10:00,
2013-07-16 19:16:00,73.6,65.9,29.06,SSW,192,0.0,0.0,77,0.04,,OVC100,0.04,VWS V14.01,2013-07-16 23:16:00,
2013-07-16 19:21:00,73.2,64.4,29.06,SSW,192,0.0,0.0,74,0.04,,OVC100,0.04,VWS V14.01,2013-07-16 23:21:00,
2013-07-16 19:26:00,73.2,64.1,29.06,SSW,192,0.0,0.0,73,0.08,,OVC100,0.08,VWS V14.01,2013-07-16 23:26:00,
2013-07-16 19:31:00,73.2,64.8,29.06,SSW,192,0.0,0.0,75,0.08,,OVC100,0.08,VWS V14.01,2013-07-16 23:31:00,
2013-07-16 19:36:00,73.0,64.7,29.06,SSW,192,0.0,0.0,75,0.08,,OVC100,0.08,VWS V14.01,2013-07-16 23:36:00,
2013-07-16 19:41:00,73.2,65.6,29.06,SSW,193,0.0,0.0,77,0.08,,OVC100,0.08,VWS V14.01,2013-07-16 23:41:00,
2013-07-16 19:46:00,73.0,65.4,29.06,SSW,193,0.0,0.0,77,0.08,,OVC100,0.08,VWS V14.01,2013-07-16 23:46:00,
2013-07-16 19:51:00,73.0,65.8,29.06,SSW,192,0.0,0.0,78,0.08,,OVC100,0.08,VWS V14.01,2013-07-16 23:51:00,
2013-07-16 19:56:00,72.9,66.0,29.06,SSW,192,0.0,0.0,79,0.04,,OVC100,0.08,VWS V14.01,2013-07-16 23:56:00,
2013-07-16 20:01:00,72.9,66.0,29.06,SSW,192,0.0,0.0,79,0.04,,OVC100,0.08,VWS V14.01,2013-07-17 00:01:00,
2013-07-16 20:06:00,73.4,67.6,29.06,SSW,192,0.0,0.0,82,0.04,,BKN110,0.08,VWS V14.01,2013-07-17 00:06:00,
2013-07-16 20:11:00,73.2,67.8,29.06,SSW,192,0.0,0.0,83,0.04,,BKN110,0.08,VWS V14.01,2013-07-17 00:11:00,
2013-07-16 20:16:00,73.2,67.8,29.06,SSW,192,0.0,0.0,83,0.04,,BKN110,0.08,VWS V14.01,2013-07-17 00:16:00,
2013-07-16 20:21:00,73.2,67.8,29.06,SSW,192,0.0,0.0,83,0.04,,BKN110,0.08,VWS V14.01,2013-07-17 00:21:00,
2013-07-16 20:26:00,73.0,67.6,29.06,SSW,192,0.0,0.0,83,0.00,,BKN110,0.08,VWS V14.01,2013-07-17 00:26:00,
2013-07-16 20:31:00,73.0,67.6,29.06,SSW,192,0.0,0.0,83,0.00,,BKN110,0.08,VWS V14.01,2013-07-17 00:31:00,
2013-07-16 20:37:00,73.0,67.6,29.06,SSW,192,0.0,0.0,83,0.00,,BKN110,0.08,VWS V14.01,2013-07-17 00:37:00,
2013-07-16 20:42:00,73.0,67.9,29.06,SSW,192,0.0,0.0,84,0.00,,BKN110,0.08,VWS V14.01,2013-07-17 00:42:00,
2013-07-16 20:47:00,73.2,68.4,29.06,SSW,192,0.0,0.0,85,0.00,,BKN110,0.08,VWS V14.01,2013-07-17 00:47:00,
2013-07-16 20:52:00,73.2,68.4,29.06,SSW,192,0.0,0.0,85,0.00,,BKN110,0.08,VWS V14.01,2013-07-17 00:52:00,
2013-07-16 20:57:00,73.4,69.0,29.06,SSW,192,0.0,0.0,86,0.00,,BKN110,0.08,VWS V14.01,2013-07-17 00:57:00,
2013-07-16 21:02:00,73.4,68.3,29.06,SSW,192,0.0,0.0,84,0.00,,BKN110,0.08,VWS V14.01,2013-07-17 01:02:00,
2013-07-16 21:07:00,73.6,68.4,29.06,SSW,192,0.0,0.0,84,0.00,,FEW075,0.08,VWS V14.01,2013-07-17 01:07:00,
2013-07-16 21:12:00,73.6,68.4,29.06,SSW,193,0.0,0.0,84,0.00,,FEW075,0.08,VWS V14.01,2013-07-17 01:12:00,
2013-07-16 21:17:00,73.2,67.8,29.06,SSW,192,0.0,0.0,83,0.00,,FEW075,0.08,VWS V14.01,2013-07-17 01:17:00,
2013-07-16 21:22:00,73.0,67.6,29.06,SSW,192,0.0,0.0,83,0.00,,FEW075,0.08,VWS V14.01,2013-07-17 01:22:00,
2013-07-16 21:27:00,73.0,67.6,29.06,SSW,192,0.0,0.0,83,0.00,,FEW075,0.08,VWS V14.01,2013-07-17 01:27:00,
2013-07-16 21:32:00,73.0,67.6,29.06,SSW,192,0.0,0.0,83,0.00,,FEW075,0.08,VWS V14.01,2013-07-17 01:32:00,
2013-07-16 21:37:00,72.9,67.8,29.06,SSW,192,0.0,0.0,84,0.00,,FEW075,0.08,VWS V14.01,2013-07-17 01:37:00,
2013-07-16 21:42:00,73.0,67.9,29.06,SSW,192,0.0,0.0,84,0.00,,FEW075,0.08,VWS V14.01,2013-07-17 01:42:00,
2013-07-16 21:47:00,73.2,68.4,29.06,SSW,192,0.0,0.0,85,0.00,,FEW075,0.08,VWS V14.01,2013-07-17 01:47:00,
2013-07-16 21:52:00,73.0,68.3,29.06,SSW,192,0.0,0.0,85,0.00,,FEW075,0.08,VWS V14.01,2013-07-17 01:52:00,
2013-07-16 21:57:00,73.0,68.3,29.06,SSW,192,0.0,0.0,85,0.00,,FEW075,0.08,VWS V14.01,2013-07-17 01:57:00,
2013-07-16 22:02:00,72.9,68.1,29.06,SSW,192,0.0,0.0,85,0.00,,FEW120,0.08,VWS V14.01,2013-07-17 02:02:00,
2013-07-16 22:07:00,72.9,68.1,29.06,SSW,192,0.0,0.0,85,0.00,,FEW120,0.08,VWS V14.01,2013-07-17 02:07:00,
2013-07-16 22:12:00,73.0,68.6,29.06,SSW,192,0.0,0.0,86,0.00,,FEW120,0.08,VWS V14.01,2013-07-17 02:12:00,
2013-07-16 22:17:00,73.0,68.6,29.06,SSW,192,0.0,0.0,86,0.00,,FEW120,0.08,VWS V14.01,2013-07-17 02:17:00,
2013-07-16 22:22:00,73.0,68.6,29.06,SSW,192,0.0,0.0,86,0.00,,FEW120,0.08,VWS V14.01,2013-07-17 02:22:00,
2013-07-16 22:28:00,72.9,68.4,29.06,SSW,192,0.0,0.0,86,0.00,,FEW120,0.08,VWS V14.01,2013-07-17 02:28:00,
2013-07-16 22:33:00,72.7,68.3,29.06,SSW,192,0.0,0.0,86,0.00,,FEW120,0.08,VWS V14.01,2013-07-17 02:33:00,
2013-07-16 22:38:00,72.7,67.9,29.06,SSW,192,0.0,0.0,85,0.00,,FEW120,0.08,VWS V14.01,2013-07-17 02:38:00,
2013-07-16 22:43:00,72.5,68.1,29.06,SSW,192,0.0,0.0,86,0.00,,FEW120,0.08,VWS V14.01,2013-07-17 02:43:00,
2013-07-16 22:48:00,72.5,68.1,29.06,SSW,192,0.0,0.0,86,0.00,,FEW120,0.08,VWS V14.01,2013-07-17 02:48:00,
2013-07-16 22:53:00,72.3,67.9,29.06,SSW,192,0.0,0.0,86,0.00,,FEW120,0.08,VWS V14.01,2013-07-17 02:53:00,
2013-07-16 22:58:00,72.3,67.9,29.06,SSW,192,0.0,0.0,86,0.00,,FEW120,0.08,VWS V14.01,2013-07-17 02:58:00,
2013-07-16 23:03:00,72.3,67.9,29.06,SSW,192,0.0,0.0,86,0.00,,CLR,0.08,VWS V14.01,2013-07-17 03:03:00,